,,,PA_Meas_PMT16A,,PR_Meas_QMR101_102,,RH_Meas_QMH101,,SR_Meas_QMS101,,TA_Meas_QMH101,,GenWind,,GenWind,
date,time,status,PA,status,PR,status,RH,status,SR,status,TA,status,DirAvg,status,SpdAvg,
2009-07-11, 00:00:04,VALID,1009,VALID,0,VALID,92.2487,VALID,0,VALID,23.4992,VALID,68,VALID,0,
2009-07-11, 00:01:04,VALID,1008.99,VALID,0,VALID,92.2564,VALID,0,VALID,23.4584,VALID,68,VALID,0,
2009-07-11, 00:02:04,VALID,1009.02,VALID,0,VALID,92.264,VALID,0,VALID,23.4584,VALID,68,VALID,0,
2009-07-11, 00:03:04,VALID,1008.99,VALID,0,VALID,92.2792,VALID,0,VALID,23.4584,VALID,68,VALID,0,
2009-07-11, 00:04:04,VALID,1008.99,VALID,0,VALID,92.2869,VALID,0,VALID,23.4584,VALID,68,VALID,0,
2009-07-11, 00:05:04,VALID,1009,VALID,0,VALID,92.2869,VALID,0,VALID,23.4584,VALID,68,VALID,0,
2009-07-11, 00:06:04,VALID,1008.96,VALID,0,VALID,92.2792,VALID,0,VALID,23.4584,VALID,68,VALID,0,
2009-07-11, 00:07:04,VALID,1008.97,VALID,0,VALID,92.2869,VALID,0,VALID,23.4797,VALID,68,VALID,0,
2009-07-11, 00:08:04,VALID,1008.93,VALID,0,VALID,92.264,VALID,0,VALID,23.4602,VALID,68,VALID,0,
2009-07-11, 00:09:04,VALID,1008.93,VALID,0,VALID,92.2716,VALID,0,VALID,23.4194,VALID,68,VALID,0,
2009-07-11, 00:10:04,VALID,1008.96,VALID,0,VALID,92.264,VALID,0,VALID,23.4194,VALID,68,VALID,0,
2009-07-11, 00:11:04,VALID,1008.98,VALID,0,VALID,92.2564,VALID,0,VALID,23.4,VALID,68,VALID,0,
2009-07-11, 00:12:04,VALID,1008.98,VALID,0,VALID,92.2487,VALID,0,VALID,23.4,VALID,68,VALID,0,
2009-07-11, 00:13:04,VALID,1008.96,VALID,0,VALID,92.2411,VALID,0.105969,VALID,23.3805,VALID,68,VALID,0,
2009-07-11, 00:14:04,VALID,1008.93,VALID,0,VALID,92.2335,VALID,0,VALID,23.3805,VALID,68,VALID,0,
2009-07-11, 00:15:04,VALID,1008.95,VALID,0,VALID,92.2487,VALID,0,VALID,23.3805,VALID,68,VALID,0,
2009-07-11, 00:16:04,VALID,1008.94,VALID,0,VALID,92.2335,VALID,0,VALID,23.3805,VALID,68,VALID,0,
2009-07-11, 00:17:04,VALID,1008.91,VALID,0,VALID,92.2335,VALID,0,VALID,23.3628,VALID,68,VALID,0,
2009-07-11, 00:18:04,VALID,1008.9,VALID,0,VALID,92.2487,VALID,0,VALID,23.361,VALID,68,VALID,0,
2009-07-11, 00:19:04,VALID,1008.94,VALID,0,VALID,92.2411,VALID,0,VALID,23.3415,VALID,68,VALID,0,
2009-07-11, 00:20:04,VALID,1008.94,VALID,0,VALID,92.2411,VALID,0,VALID,23.3433,VALID,68,VALID,0,
2009-07-11, 00:21:04,VALID,1008.95,VALID,0,VALID,92.2106,VALID,0,VALID,23.322,VALID,68,VALID,0,
2009-07-11, 00:22:04,VALID,1008.92,VALID,0,VALID,92.2411,VALID,0,VALID,23.322,VALID,68,VALID,0,
2009-07-11, 00:23:04,VALID,1008.9,VALID,0,VALID,92.2487,VALID,0,VALID,23.322,VALID,68,VALID,0,
2009-07-11, 00:24:04,VALID,1008.89,VALID,0,VALID,92.2487,VALID,0,VALID,23.3415,VALID,68,VALID,0,
2009-07-11, 00:25:04,VALID,1008.93,VALID,0,VALID,92.2564,VALID,0,VALID,23.322,VALID,68,VALID,0,
2009-07-11, 00:26:04,VALID,1008.91,VALID,0,VALID,92.264,VALID,0,VALID,23.3238,VALID,68,VALID,0,
2009-07-11, 00:27:04,VALID,1008.93,VALID,0,VALID,92.2792,VALID,0,VALID,23.3238,VALID,68,VALID,0,
2009-07-11, 00:28:04,VALID,1008.94,VALID,0,VALID,92.264,VALID,0,VALID,23.2831,VALID,68,VALID,0,
2009-07-11, 00:29:04,VALID,1008.93,VALID,0,VALID,92.2716,VALID,0,VALID,23.2831,VALID,68,VALID,0,
2009-07-11, 00:30:04,VALID,1008.92,VALID,0,VALID,92.2716,VALID,0,VALID,23.2831,VALID,68,VALID,0,
2009-07-11, 00:31:04,VALID,1008.91,VALID,0,VALID,92.2716,VALID,0.105969,VALID,23.3043,VALID,68,VALID,0,
2009-07-11, 00:32:04,VALID,1008.87,VALID,0,VALID,92.2945,VALID,0,VALID,23.2831,VALID,68,VALID,0,
2009-07-11, 00:33:04,VALID,1008.88,VALID,0,VALID,92.3097,VALID,0,VALID,23.2831,VALID,68,VALID,0,
2009-07-11, 00:34:04,VALID,1008.85,VALID,0,VALID,92.2792,VALID,0,VALID,23.2636,VALID,68,VALID,0,
2009-07-11, 00:35:04,VALID,1008.83,VALID,0,VALID,92.3326,VALID,0,VALID,23.2636,VALID,68,VALID,0,
2009-07-11, 00:36:04,VALID,1008.82,VALID,0,VALID,92.3097,VALID,0,VALID,23.2636,VALID,68,VALID,0,
2009-07-11, 00:37:04,VALID,1008.8,VALID,0,VALID,92.3097,VALID,0,VALID,23.2636,VALID,68,VALID,0,
2009-07-11, 00:38:04,VALID,1008.79,VALID,0,VALID,92.3174,VALID,0,VALID,23.2459,VALID,68,VALID,0,
2009-07-11, 00:39:04,VALID,1008.78,VALID,0,VALID,92.2945,VALID,0,VALID,23.2051,VALID,68,VALID,0,
2009-07-11, 00:40:04,VALID,1008.77,VALID,0,VALID,92.2945,VALID,0,VALID,23.2051,VALID,68,VALID,0,
2009-07-11, 00:41:04,VALID,1008.75,VALID,0,VALID,92.2792,VALID,0,VALID,23.2264,VALID,68,VALID,0,
2009-07-11, 00:42:04,VALID,1008.73,VALID,0,VALID,92.2945,VALID,0.105969,VALID,23.2051,VALID,68,VALID,0,
2009-07-11, 00:43:04,VALID,1008.73,VALID,0,VALID,92.3021,VALID,0,VALID,23.2246,VALID,68,VALID,0,
2009-07-11, 00:44:04,VALID,1008.73,VALID,0,VALID,92.3097,VALID,0,VALID,23.2459,VALID,68,VALID,0,
2009-07-11, 00:45:04,VALID,1008.75,VALID,0,VALID,92.3174,VALID,0,VALID,23.2441,VALID,68,VALID,0,
2009-07-11, 00:46:04,VALID,1008.74,VALID,0,VALID,92.3402,VALID,0,VALID,23.2654,VALID,37,VALID,0,
2009-07-11, 00:47:04,VALID,1008.73,VALID,0,VALID,92.3326,VALID,0,VALID,23.2441,VALID,37,VALID,0,
2009-07-11, 00:48:04,VALID,1008.71,VALID,0,VALID,92.325,VALID,0,VALID,23.2441,VALID,37,VALID,0,
2009-07-11, 00:49:04,VALID,1008.69,VALID,0,VALID,92.325,VALID,0.105969,VALID,23.2246,VALID,37,VALID,0,
2009-07-11, 00:50:04,VALID,1008.68,VALID,0,VALID,92.2945,VALID,0,VALID,23.2051,VALID,37,VALID,0,
2009-07-11, 00:51:04,VALID,1008.64,VALID,0,VALID,92.325,VALID,0,VALID,23.2246,VALID,37,VALID,0,
2009-07-11, 00:52:04,VALID,1008.69,VALID,0,VALID,92.3174,VALID,0,VALID,23.2459,VALID,37,VALID,0,
2009-07-11, 00:53:04,VALID,1008.64,VALID,0,VALID,92.3174,VALID,0.105969,VALID,23.2069,VALID,37,VALID,0,
2009-07-11, 00:54:04,VALID,1008.65,VALID,0,VALID,92.3174,VALID,0,VALID,23.2051,VALID,37,VALID,0,
2009-07-11, 00:55:04,VALID,1008.61,VALID,0,VALID,92.325,VALID,0.105969,VALID,23.1662,VALID,37,VALID,0,
2009-07-11, 00:56:04,VALID,1008.61,VALID,0,VALID,92.3326,VALID,0,VALID,23.1874,VALID,37,VALID,0,
2009-07-11, 00:57:04,VALID,1008.63,VALID,0,VALID,92.3326,VALID,0,VALID,23.1467,VALID,37,VALID,0,
2009-07-11, 00:58:04,VALID,1008.6,VALID,0,VALID,92.3402,VALID,0,VALID,23.1485,VALID,37,VALID,0,
2009-07-11, 00:59:04,VALID,1008.56,VALID,0,VALID,92.3402,VALID,0,VALID,23.1272,VALID,37,VALID,0,
2009-07-11, 01:00:04,VALID,1008.58,VALID,0,VALID,92.3402,VALID,0.105969,VALID,23.1077,VALID,37,VALID,0,
2009-07-11, 01:01:04,VALID,1008.57,VALID,0,VALID,92.3479,VALID,0,VALID,23.1077,VALID,37,VALID,0,
2009-07-11, 01:02:04,VALID,1008.58,VALID,0,VALID,92.3555,VALID,0.105969,VALID,23.1077,VALID,37,VALID,0,
2009-07-11, 01:03:04,VALID,1008.57,VALID,0,VALID,92.3555,VALID,0,VALID,23.1077,VALID,37,VALID,0,
2009-07-11, 01:04:04,VALID,1008.54,VALID,0,VALID,92.3479,VALID,0,VALID,23.1272,VALID,37,VALID,0,
2009-07-11, 01:05:04,VALID,1008.54,VALID,0,VALID,92.3784,VALID,0,VALID,23.129,VALID,37,VALID,0,
2009-07-11, 01:06:04,VALID,1008.53,VALID,0,VALID,92.386,VALID,0,VALID,23.1077,VALID,37,VALID,0,
2009-07-11, 01:07:04,VALID,1008.54,VALID,0,VALID,92.3936,VALID,0,VALID,23.1077,VALID,37,VALID,0,
2009-07-11, 01:08:04,VALID,1008.57,VALID,0,VALID,92.386,VALID,0.105969,VALID,23.0883,VALID,37,VALID,0,
2009-07-11, 01:09:04,VALID,1008.53,VALID,0,VALID,92.3936,VALID,0,VALID,23.0688,VALID,37,VALID,0,
2009-07-11, 01:10:04,VALID,1008.52,VALID,0,VALID,92.3784,VALID,0,VALID,23.0705,VALID,37,VALID,0,
2009-07-11, 01:11:04,VALID,1008.53,VALID,0,VALID,92.3784,VALID,0,VALID,23.0493,VALID,37,VALID,0,
2009-07-11, 01:12:04,VALID,1008.49,VALID,0,VALID,92.386,VALID,0.105969,VALID,23.0298,VALID,37,VALID,0,
2009-07-11, 01:13:04,VALID,1008.49,VALID,0,VALID,92.3631,VALID,0,VALID,23.0511,VALID,37,VALID,0,
2009-07-11, 01:14:04,VALID,1008.46,VALID,0,VALID,92.3708,VALID,0,VALID,23.0511,VALID,37,VALID,0,
2009-07-11, 01:15:04,VALID,1008.42,VALID,0,VALID,92.3708,VALID,0.105969,VALID,23.0298,VALID,37,VALID,0,
2009-07-11, 01:16:04,VALID,1008.45,VALID,0,VALID,92.3784,VALID,0,VALID,23.0103,VALID,37,VALID,0,
2009-07-11, 01:17:04,VALID,1008.41,VALID,0,VALID,92.386,VALID,0,VALID,22.9909,VALID,37,VALID,0,
2009-07-11, 01:18:04,VALID,1008.41,VALID,0,VALID,92.386,VALID,0.105969,VALID,22.9714,VALID,37,VALID,0,
2009-07-11, 01:19:04,VALID,1008.43,VALID,0,VALID,92.3555,VALID,0,VALID,22.9926,VALID,37,VALID,0,
2009-07-11, 01:20:04,VALID,1008.41,VALID,0,VALID,92.386,VALID,0,VALID,23.0103,VALID,37,VALID,0,
2009-07-11, 01:21:04,VALID,1008.41,VALID,0,VALID,92.386,VALID,0.105969,VALID,23.0298,VALID,37,VALID,0,
2009-07-11, 01:22:04,VALID,1008.41,VALID,0,VALID,92.4241,VALID,0,VALID,23.0298,VALID,37,VALID,0,
2009-07-11, 01:23:04,VALID,1008.38,VALID,0,VALID,92.4165,VALID,0,VALID,23.0298,VALID,37,VALID,0,
2009-07-11, 01:24:04,VALID,1008.4,VALID,0,VALID,92.4318,VALID,0,VALID,23.0298,VALID,37,VALID,0,
2009-07-11, 01:25:04,VALID,1008.36,VALID,0,VALID,92.4165,VALID,0.105969,VALID,23.0298,VALID,37,VALID,0,
2009-07-11, 01:26:04,VALID,1008.4,VALID,0,VALID,92.4165,VALID,0.105969,VALID,23.0121,VALID,37,VALID,0,
2009-07-11, 01:27:04,VALID,1008.39,VALID,0,VALID,92.4089,VALID,0,VALID,22.9909,VALID,37,VALID,0,
2009-07-11, 01:28:04,VALID,1008.4,VALID,0,VALID,92.4089,VALID,0,VALID,23.0121,VALID,37,VALID,0,
2009-07-11, 01:29:04,VALID,1008.41,VALID,0,VALID,92.4318,VALID,0,VALID,22.9909,VALID,37,VALID,0,
2009-07-11, 01:30:04,VALID,1008.42,VALID,0,VALID,92.4318,VALID,0,VALID,22.9926,VALID,37,VALID,0,
2009-07-11, 01:31:04,VALID,1008.43,VALID,0,VALID,92.4318,VALID,0,VALID,22.9714,VALID,37,VALID,0,
2009-07-11, 01:32:04,VALID,1008.44,VALID,0,VALID,92.4165,VALID,0.105969,VALID,22.9519,VALID,36,VALID,0,
2009-07-11, 01:33:04,VALID,1008.42,VALID,0,VALID,92.4394,VALID,0,VALID,22.9324,VALID,37,VALID,0,
2009-07-11, 01:34:04,VALID,1008.43,VALID,0,VALID,92.4318,VALID,0.105969,VALID,22.9324,VALID,36,VALID,0,
2009-07-11, 01:35:04,VALID,1008.42,VALID,0,VALID,92.4394,VALID,0.105969,VALID,22.9129,VALID,37,VALID,0,
2009-07-11, 01:36:04,VALID,1008.4,VALID,0,VALID,92.4394,VALID,0,VALID,22.8935,VALID,37,VALID,0,
2009-07-11, 01:37:04,VALID,1008.4,VALID,0,VALID,92.4318,VALID,0,VALID,22.8935,VALID,36,VALID,0,
2009-07-11, 01:38:04,VALID,1008.38,VALID,0,VALID,92.4241,VALID,0,VALID,22.874,VALID,37,VALID,0,
2009-07-11, 01:39:04,VALID,1008.38,VALID,0,VALID,92.4318,VALID,0,VALID,22.835,VALID,36,VALID,0,
2009-07-11, 01:40:04,VALID,1008.34,VALID,0,VALID,92.4089,VALID,0,VALID,22.8545,VALID,53,VALID,0.266406,
2009-07-11, 01:41:04,VALID,1008.3,VALID,0,VALID,92.4394,VALID,0,VALID,22.874,VALID,61,VALID,0.405078,
2009-07-11, 01:42:04,VALID,1008.27,VALID,0,VALID,92.4318,VALID,0,VALID,22.8545,VALID,61,VALID,0.332812,
2009-07-11, 01:43:04,VALID,1008.28,VALID,0,VALID,92.4394,VALID,0,VALID,22.835,VALID,61,VALID,0.347266,
2009-07-11, 01:44:04,VALID,1008.24,VALID,0,VALID,92.4394,VALID,0.105969,VALID,22.8545,VALID,64,VALID,0.561328,
2009-07-11, 01:45:04,VALID,1008.24,VALID,0,VALID,92.4394,VALID,0.105969,VALID,22.835,VALID,64,VALID,0.201953,
2009-07-11, 01:46:04,VALID,1008.2,VALID,0,VALID,92.4394,VALID,0,VALID,22.835,VALID,64,VALID,0,
2009-07-11, 01:47:04,VALID,1008.19,VALID,0,VALID,92.447,VALID,0.105969,VALID,22.835,VALID,64,VALID,0,
2009-07-11, 01:48:04,VALID,1008.16,VALID,0,VALID,92.4394,VALID,0.105969,VALID,22.8155,VALID,64,VALID,0,
2009-07-11, 01:49:04,VALID,1008.14,VALID,0,VALID,92.4318,VALID,0,VALID,22.8368,VALID,64,VALID,0,
2009-07-11, 01:50:04,VALID,1008.13,VALID,0,VALID,92.4318,VALID,0,VALID,22.8155,VALID,64,VALID,0.316797,
2009-07-11, 01:51:04,VALID,1008.09,VALID,0,VALID,92.447,VALID,0,VALID,22.8155,VALID,64,VALID,0.248047,
2009-07-11, 01:52:04,VALID,1008.04,VALID,0,VALID,92.447,VALID,0,VALID,22.7961,VALID,64,VALID,0.422266,
2009-07-11, 01:53:04,VALID,1008.02,VALID,0,VALID,92.447,VALID,0,VALID,22.8155,VALID,64,VALID,0.422266,
2009-07-11, 01:54:04,VALID,1008.01,VALID,0,VALID,92.447,VALID,0,VALID,22.835,VALID,83,VALID,0.732813,
2009-07-11, 01:55:04,VALID,1008,VALID,0,VALID,92.447,VALID,0,VALID,22.835,VALID,94,VALID,0.475391,
2009-07-11, 01:56:04,VALID,1008.02,VALID,0,VALID,92.447,VALID,0,VALID,22.835,VALID,94,VALID,0.389062,
2009-07-11, 01:57:04,VALID,1008,VALID,0,VALID,92.4623,VALID,0,VALID,22.8155,VALID,94,VALID,0.340234,
2009-07-11, 01:58:04,VALID,1008.05,VALID,0,VALID,92.447,VALID,0,VALID,22.8155,VALID,94,VALID,0.251953,
2009-07-11, 01:59:04,VALID,1008.06,VALID,0,VALID,92.4394,VALID,0,VALID,22.835,VALID,94,VALID,0.232422,
2009-07-11, 02:00:04,VALID,1008.06,VALID,0,VALID,92.4318,VALID,0,VALID,22.835,VALID,64,VALID,0.226953,
2009-07-11, 02:01:04,VALID,1008.06,VALID,0,VALID,92.4394,VALID,0.105969,VALID,22.8757,VALID,64,VALID,0.34375,
2009-07-11, 02:02:04,VALID,1008.06,VALID,0,VALID,92.4394,VALID,0,VALID,22.874,VALID,64,VALID,0,
2009-07-11, 02:03:04,VALID,1008.03,VALID,0,VALID,92.4318,VALID,0.105969,VALID,22.8545,VALID,64,VALID,0,
2009-07-11, 02:04:04,VALID,1008,VALID,0,VALID,92.4318,VALID,0,VALID,22.8757,VALID,64,VALID,0,
2009-07-11, 02:05:04,VALID,1007.99,VALID,0,VALID,92.4241,VALID,0,VALID,22.8545,VALID,64,VALID,0,
2009-07-11, 02:06:04,VALID,1007.96,VALID,0,VALID,92.4241,VALID,0.105969,VALID,22.835,VALID,64,VALID,0,
2009-07-11, 02:07:04,VALID,1007.94,VALID,0,VALID,92.4241,VALID,0,VALID,22.8155,VALID,64,VALID,0,
2009-07-11, 02:08:04,VALID,1007.91,VALID,0,VALID,92.4165,VALID,0,VALID,22.8173,VALID,64,VALID,0,
2009-07-11, 02:09:04,VALID,1007.94,VALID,0,VALID,92.4394,VALID,0,VALID,22.7961,VALID,64,VALID,0,
2009-07-11, 02:10:04,VALID,1007.94,VALID,0,VALID,92.4318,VALID,0,VALID,22.7571,VALID,64,VALID,0,
2009-07-11, 02:11:04,VALID,1007.94,VALID,0,VALID,92.4318,VALID,0,VALID,22.7376,VALID,64,VALID,0,
2009-07-11, 02:12:04,VALID,1007.96,VALID,0,VALID,92.4318,VALID,0.105969,VALID,22.7571,VALID,64,VALID,0,
2009-07-11, 02:13:04,VALID,1007.93,VALID,0,VALID,92.4318,VALID,0,VALID,22.7571,VALID,64,VALID,0,
2009-07-11, 02:14:04,VALID,1007.94,VALID,0,VALID,92.447,VALID,0.105969,VALID,22.7376,VALID,64,VALID,0,
2009-07-11, 02:15:04,VALID,1007.96,VALID,0,VALID,92.447,VALID,0.105969,VALID,22.7359,VALID,64,VALID,0,
2009-07-11, 02:16:04,VALID,1007.95,VALID,0,VALID,92.4623,VALID,0,VALID,22.7588,VALID,64,VALID,0,
2009-07-11, 02:17:04,VALID,1007.94,VALID,0,VALID,92.447,VALID,0,VALID,22.7394,VALID,64,VALID,0,
2009-07-11, 02:18:04,VALID,1007.94,VALID,0,VALID,92.4623,VALID,0.105969,VALID,22.7182,VALID,64,VALID,0,
2009-07-11, 02:19:04,VALID,1007.95,VALID,0,VALID,92.447,VALID,0,VALID,22.7182,VALID,64,VALID,0,
2009-07-11, 02:20:04,VALID,1007.95,VALID,0,VALID,92.4699,VALID,0,VALID,22.7182,VALID,64,VALID,0,
2009-07-11, 02:21:04,VALID,1007.98,VALID,0,VALID,92.4623,VALID,0.105969,VALID,22.7182,VALID,64,VALID,0,
2009-07-11, 02:22:04,VALID,1007.98,VALID,0,VALID,92.4699,VALID,0,VALID,22.7199,VALID,64,VALID,0,
2009-07-11, 02:23:04,VALID,1007.97,VALID,0,VALID,92.4775,VALID,0,VALID,22.6987,VALID,64,VALID,0,
2009-07-11, 02:24:04,VALID,1007.97,VALID,0,VALID,92.4775,VALID,0.105969,VALID,22.6792,VALID,64,VALID,0,
2009-07-11, 02:25:04,VALID,1007.99,VALID,0,VALID,92.4699,VALID,0,VALID,22.6792,VALID,64,VALID,0,
2009-07-11, 02:26:04,VALID,1007.97,VALID,0,VALID,92.4775,VALID,0,VALID,22.6987,VALID,64,VALID,0,
2009-07-11, 02:27:04,VALID,1007.97,VALID,0,VALID,92.4851,VALID,0,VALID,22.7182,VALID,61,VALID,0,
2009-07-11, 02:28:04,VALID,1007.99,VALID,0,VALID,92.5004,VALID,0,VALID,22.7376,VALID,348,VALID,0,
2009-07-11, 02:29:04,VALID,1007.96,VALID,0,VALID,92.5156,VALID,0.105969,VALID,22.7376,VALID,348,VALID,0,
2009-07-11, 02:30:04,VALID,1007.95,VALID,0,VALID,92.508,VALID,0.105969,VALID,22.7376,VALID,348,VALID,0,
2009-07-11, 02:31:04,VALID,1007.96,VALID,0,VALID,92.4928,VALID,0,VALID,22.7394,VALID,348,VALID,0,
2009-07-11, 02:32:04,VALID,1007.95,VALID,0,VALID,92.5156,VALID,0,VALID,22.7394,VALID,348,VALID,0,
2009-07-11, 02:33:04,VALID,1007.93,VALID,0,VALID,92.508,VALID,0,VALID,22.7394,VALID,348,VALID,0,
2009-07-11, 02:34:04,VALID,1007.89,VALID,0,VALID,92.5385,VALID,0,VALID,22.7199,VALID,348,VALID,0,
2009-07-11, 02:35:04,VALID,1007.89,VALID,0,VALID,92.5385,VALID,0,VALID,22.7004,VALID,348,VALID,0,
2009-07-11, 02:36:04,VALID,1007.87,VALID,0,VALID,92.5385,VALID,0,VALID,22.6809,VALID,348,VALID,0,
2009-07-11, 02:37:04,VALID,1007.83,VALID,0,VALID,92.5233,VALID,0,VALID,22.6614,VALID,348,VALID,0,
2009-07-11, 02:38:04,VALID,1007.85,VALID,0,VALID,92.5309,VALID,0,VALID,22.6225,VALID,348,VALID,0,
2009-07-11, 02:39:04,VALID,1007.86,VALID,0,VALID,92.5461,VALID,0,VALID,22.6225,VALID,348,VALID,0,
2009-07-11, 02:40:04,VALID,1007.84,VALID,0,VALID,92.5309,VALID,0,VALID,22.6225,VALID,348,VALID,0,
2009-07-11, 02:41:04,VALID,1007.82,VALID,0,VALID,92.5233,VALID,0,VALID,22.6632,VALID,348,VALID,0,
2009-07-11, 02:42:04,VALID,1007.83,VALID,0,VALID,92.5309,VALID,0,VALID,22.6614,VALID,348,VALID,0,
2009-07-11, 02:43:04,VALID,1007.83,VALID,0,VALID,92.5309,VALID,0,VALID,22.6614,VALID,348,VALID,0,
2009-07-11, 02:44:04,VALID,1007.82,VALID,0,VALID,92.5461,VALID,0,VALID,22.6792,VALID,348,VALID,0,
2009-07-11, 02:45:04,VALID,1007.82,VALID,0,VALID,92.569,VALID,0,VALID,22.7004,VALID,347,VALID,0,
2009-07-11, 02:46:04,VALID,1007.81,VALID,0,VALID,92.5538,VALID,0.105969,VALID,22.7199,VALID,347,VALID,0,
2009-07-11, 02:47:04,VALID,1007.86,VALID,0,VALID,92.5766,VALID,0,VALID,22.6987,VALID,347,VALID,0,
2009-07-11, 02:48:04,VALID,1007.82,VALID,0,VALID,92.5766,VALID,0.105969,VALID,22.6597,VALID,347,VALID,0,
2009-07-11, 02:49:04,VALID,1007.84,VALID,0,VALID,92.5614,VALID,0,VALID,22.6597,VALID,347,VALID,0,
2009-07-11, 02:50:04,VALID,1007.84,VALID,0,VALID,92.569,VALID,0,VALID,22.6809,VALID,347,VALID,0,
2009-07-11, 02:51:04,VALID,1007.8,VALID,0,VALID,92.569,VALID,0,VALID,22.6402,VALID,347,VALID,0,
2009-07-11, 02:52:04,VALID,1007.79,VALID,0,VALID,92.5766,VALID,0,VALID,22.642,VALID,347,VALID,0,
2009-07-11, 02:53:04,VALID,1007.74,VALID,0,VALID,92.5843,VALID,0,VALID,22.642,VALID,347,VALID,0,
2009-07-11, 02:54:04,VALID,1007.77,VALID,0,VALID,92.5766,VALID,0.105969,VALID,22.6208,VALID,347,VALID,0,
2009-07-11, 02:55:04,VALID,1007.78,VALID,0,VALID,92.5843,VALID,0,VALID,22.6614,VALID,347,VALID,0,
2009-07-11, 02:56:04,VALID,1007.83,VALID,0,VALID,92.5538,VALID,0,VALID,22.6809,VALID,347,VALID,0,
2009-07-11, 02:57:04,VALID,1007.84,VALID,0,VALID,92.5919,VALID,0,VALID,22.6809,VALID,347,VALID,0,
2009-07-11, 02:58:04,VALID,1007.85,VALID,0,VALID,92.5919,VALID,0.105969,VALID,22.6597,VALID,347,VALID,0,
2009-07-11, 02:59:04,VALID,1007.86,VALID,0,VALID,92.6071,VALID,0,VALID,22.6597,VALID,347,VALID,0,
2009-07-11, 03:00:04,VALID,1007.88,VALID,0,VALID,92.63,VALID,0,VALID,22.6597,VALID,347,VALID,0,
2009-07-11, 03:01:04,VALID,1007.88,VALID,0,VALID,92.6071,VALID,0,VALID,22.6809,VALID,347,VALID,0,
2009-07-11, 03:02:04,VALID,1007.88,VALID,0,VALID,92.6224,VALID,0,VALID,22.6402,VALID,347,VALID,0,
2009-07-11, 03:03:04,VALID,1007.89,VALID,0,VALID,92.63,VALID,0,VALID,22.6402,VALID,347,VALID,0,
2009-07-11, 03:04:04,VALID,1007.88,VALID,0,VALID,92.6376,VALID,0,VALID,22.642,VALID,347,VALID,0,
2009-07-11, 03:05:04,VALID,1007.9,VALID,0,VALID,92.6224,VALID,0,VALID,22.642,VALID,347,VALID,0,
2009-07-11, 03:06:04,VALID,1007.89,VALID,0,VALID,92.6376,VALID,0,VALID,22.642,VALID,347,VALID,0,
2009-07-11, 03:07:04,VALID,1007.87,VALID,0,VALID,92.6453,VALID,0,VALID,22.6208,VALID,347,VALID,0,
2009-07-11, 03:08:04,VALID,1007.89,VALID,0,VALID,92.6376,VALID,0,VALID,22.6208,VALID,347,VALID,0,
2009-07-11, 03:09:04,VALID,1007.9,VALID,0,VALID,92.63,VALID,0.105969,VALID,22.642,VALID,347,VALID,0,
2009-07-11, 03:10:04,VALID,1007.9,VALID,0,VALID,92.6453,VALID,0,VALID,22.642,VALID,347,VALID,0,
2009-07-11, 03:11:04,VALID,1007.93,VALID,0,VALID,92.6224,VALID,0,VALID,22.642,VALID,347,VALID,0,
2009-07-11, 03:12:04,VALID,1007.91,VALID,0,VALID,92.6682,VALID,0,VALID,22.6013,VALID,347,VALID,0,
2009-07-11, 03:13:04,VALID,1007.95,VALID,0,VALID,92.6453,VALID,0,VALID,22.5835,VALID,347,VALID,0,
2009-07-11, 03:14:04,VALID,1007.91,VALID,0,VALID,92.6376,VALID,0,VALID,22.5429,VALID,347,VALID,0,
2009-07-11, 03:15:04,VALID,1007.93,VALID,0,VALID,92.6376,VALID,0,VALID,22.5446,VALID,347,VALID,0,
2009-07-11, 03:16:04,VALID,1007.91,VALID,0,VALID,92.6605,VALID,0.105969,VALID,22.5429,VALID,347,VALID,0,
2009-07-11, 03:17:04,VALID,1007.93,VALID,0,VALID,92.6224,VALID,0.105969,VALID,22.5429,VALID,347,VALID,0,
2009-07-11, 03:18:04,VALID,1007.95,VALID,0,VALID,92.63,VALID,0,VALID,22.5623,VALID,347,VALID,0,
2009-07-11, 03:19:04,VALID,1007.97,VALID,0,VALID,92.6529,VALID,0,VALID,22.5429,VALID,347,VALID,0,
2009-07-11, 03:20:04,VALID,1008,VALID,0,VALID,92.63,VALID,0.105969,VALID,22.5818,VALID,233,VALID,0.075,
2009-07-11, 03:21:04,VALID,1008.01,VALID,0,VALID,92.6376,VALID,0,VALID,22.642,VALID,233,VALID,0.0160156,
2009-07-11, 03:22:04,VALID,1008.01,VALID,0,VALID,92.63,VALID,0,VALID,22.6614,VALID,233,VALID,0,
2009-07-11, 03:23:04,VALID,1008.03,VALID,0,VALID,92.6453,VALID,0,VALID,22.5835,VALID,233,VALID,0.194531,
2009-07-11, 03:24:04,VALID,1008.01,VALID,0,VALID,92.6376,VALID,0,VALID,22.5818,VALID,200,VALID,0.317187,
2009-07-11, 03:25:04,VALID,1008,VALID,0,VALID,92.6376,VALID,0,VALID,22.5623,VALID,200,VALID,0.0480469,
2009-07-11, 03:26:04,VALID,1008.03,VALID,0,VALID,92.6224,VALID,0.105969,VALID,22.5623,VALID,200,VALID,0.234766,
2009-07-11, 03:27:04,VALID,1008.03,VALID,0,VALID,92.6224,VALID,0,VALID,22.6208,VALID,170,VALID,0.182812,
2009-07-11, 03:28:04,VALID,1008.04,VALID,0,VALID,92.6224,VALID,0,VALID,22.6208,VALID,170,VALID,0,
2009-07-11, 03:29:04,VALID,1008.05,VALID,0,VALID,92.5995,VALID,0,VALID,22.6792,VALID,170,VALID,0.182422,
2009-07-11, 03:30:04,VALID,1008.07,VALID,0,VALID,92.6071,VALID,0,VALID,22.7376,VALID,170,VALID,0.169531,
2009-07-11, 03:31:04,VALID,1008.09,VALID,0,VALID,92.569,VALID,0.105969,VALID,22.7978,VALID,170,VALID,0.0886719,
2009-07-11, 03:32:04,VALID,1008.1,VALID,0,VALID,92.5995,VALID,0,VALID,22.8155,VALID,170,VALID,0,
2009-07-11, 03:33:04,VALID,1008.11,VALID,0,VALID,92.5843,VALID,0,VALID,22.8562,VALID,170,VALID,0,
2009-07-11, 03:34:04,VALID,1008.1,VALID,0,VALID,92.569,VALID,0.105969,VALID,22.8545,VALID,170,VALID,0,
2009-07-11, 03:35:04,VALID,1008.09,VALID,0,VALID,92.5843,VALID,0,VALID,22.8562,VALID,170,VALID,0,
2009-07-11, 03:36:04,VALID,1008.09,VALID,0,VALID,92.5919,VALID,0,VALID,22.8155,VALID,170,VALID,0,
2009-07-11, 03:37:04,VALID,1008.08,VALID,0,VALID,92.5919,VALID,0,VALID,22.7783,VALID,170,VALID,0,
2009-07-11, 03:38:04,VALID,1008.07,VALID,0,VALID,92.569,VALID,0,VALID,22.7588,VALID,170,VALID,0,
2009-07-11, 03:39:04,VALID,1008.06,VALID,0,VALID,92.569,VALID,0.105969,VALID,22.7571,VALID,170,VALID,0,
2009-07-11, 03:40:04,VALID,1008.07,VALID,0,VALID,92.5614,VALID,0,VALID,22.7394,VALID,170,VALID,0,
2009-07-11, 03:41:04,VALID,1008.06,VALID,0,VALID,92.5538,VALID,0,VALID,22.7199,VALID,170,VALID,0,
2009-07-11, 03:42:04,VALID,1008.06,VALID,0,VALID,92.5538,VALID,0,VALID,22.6809,VALID,170,VALID,0,
2009-07-11, 03:43:04,VALID,1008.05,VALID,0,VALID,92.5309,VALID,0,VALID,22.7394,VALID,170,VALID,0,
2009-07-11, 03:44:04,VALID,1008.06,VALID,0,VALID,92.5156,VALID,0,VALID,22.8173,VALID,170,VALID,0,
2009-07-11, 03:45:04,VALID,1008.07,VALID,0,VALID,92.5004,VALID,0,VALID,22.8562,VALID,170,VALID,0,
2009-07-11, 03:46:04,VALID,1008.08,VALID,0,VALID,92.5309,VALID,0,VALID,22.874,VALID,170,VALID,0,
2009-07-11, 03:47:04,VALID,1008.07,VALID,0,VALID,92.5156,VALID,0,VALID,22.9536,VALID,170,VALID,0,
2009-07-11, 03:48:04,VALID,1008.1,VALID,0,VALID,92.4851,VALID,0,VALID,23.0511,VALID,170,VALID,0,
2009-07-11, 03:49:04,VALID,1008.1,VALID,0,VALID,92.5004,VALID,0,VALID,23.1095,VALID,170,VALID,0,
2009-07-11, 03:50:04,VALID,1008.1,VALID,0,VALID,92.5233,VALID,0,VALID,23.1272,VALID,170,VALID,0,
2009-07-11, 03:51:04,VALID,1008.09,VALID,0,VALID,92.5156,VALID,0,VALID,23.1874,VALID,170,VALID,0,
2009-07-11, 03:52:04,VALID,1008.1,VALID,0,VALID,92.5538,VALID,0,VALID,23.1662,VALID,170,VALID,0,
2009-07-11, 03:53:04,VALID,1008.11,VALID,0,VALID,92.5614,VALID,0,VALID,23.1467,VALID,170,VALID,0,
2009-07-11, 03:54:04,VALID,1008.1,VALID,0,VALID,92.5614,VALID,0,VALID,23.129,VALID,170,VALID,0,
2009-07-11, 03:55:04,VALID,1008.1,VALID,0,VALID,92.5766,VALID,0,VALID,23.0298,VALID,170,VALID,0,
2009-07-11, 03:56:04,VALID,1008.11,VALID,0,VALID,92.5538,VALID,0,VALID,22.9714,VALID,170,VALID,0.356641,